• In Latvia
  • List of Countries
  • For 7 days
  • Water Temperature
  • Satellite Maps
  • Weather Map
  • Weather Widgets
  • user-avatar
    Login

    Hourly Weather Gjirokaster

    Today, 16 December, Saturday

    Time Temperature Precipitation Wind Pressure Humidity
    00:00 +3°C° 0.2 mm 6 mps 647 mmHg 94%
    01:00 +3°C° 0 mm 7 mps 646 mmHg 94%
    02:00 +3°C° 0.2 mm 7 mps 646 mmHg 94%
    03:00 +4°C° 0.2 mm 7 mps 646 mmHg 94%
    04:00 +4°C° 0.2 mm 6 mps 646 mmHg 94%
    05:00 +4°C° 0.2 mm 6 mps 646 mmHg 94%
    06:00 +3°C° 0.2 mm 6 mps 646 mmHg 95%
    07:00 +5°C° 0 mm 5 mps 645 mmHg 94%
    08:00 +5°C° 0.5 mm 5 mps 645 mmHg 93%
    09:00 +4°C° 0.5 mm 6 mps 646 mmHg 91%
    10:00 +5°C° 0.5 mm 6 mps 646 mmHg 89%
    11:00 +4°C° 1.5 mm 6 mps 646 mmHg 90%
    12:00 +4°C° 1.5 mm 6 mps 645 mmHg 90%
    13:00 +3°C° 0 mm 6 mps 645 mmHg 90%
    14:00 +3°C° 2 mm 5 mps 645 mmHg 91%
    15:00 +2°C° 2 mm 5 mps 645 mmHg 93%
    16:00 +2°C° 2 mm 5 mps 645 mmHg 94%
    17:00 +3°C° 1.3 mm 4 mps 645 mmHg 95%
    18:00 +1°C° 1.3 mm 4 mps 644 mmHg 95%
    19:00 +2°C° 1.3 mm 3 mps 644 mmHg 95%
    20:00 +2°C° 0.8 mm 3 mps 645 mmHg 95%
    21:00 +3°C° 0.8 mm 2 mps 645 mmHg 94%
    22:00 +3°C° 0.8 mm 2 mps 645 mmHg 94%
    23:00 +3°C° 1 mm 2 mps 645 mmHg 95%

    Tomorrow, 17 December, Sunday

    Time Temperature Precipitation Wind Pressure Humidity
    00:00 +4°C° 1 mm 1 mps 645 mmHg 95%
    01:00 +4°C° 1 mm 1 mps 645 mmHg 96%
    02:00 +3°C° 0.9 mm 2 mps 645 mmHg 95%
    03:00 +3°C° 0.9 mm 2 mps 645 mmHg 95%
    04:00 +3°C° 0.9 mm 2 mps 645 mmHg 95%
    05:00 +3°C° 0.4 mm 2 mps 645 mmHg 94%
    06:00 +3°C° 0.4 mm 2 mps 645 mmHg 94%
    07:00 +2°C° 0.4 mm 2 mps 646 mmHg 93%
    08:00 +3°C° 0.3 mm 2 mps 646 mmHg 89%
    09:00 +3°C° 0.3 mm 2 mps 647 mmHg 85%
    10:00 +3°C° 0.3 mm 2 mps 647 mmHg 81%
    11:00 +4°C° 0.2 mm 2 mps 647 mmHg 77%
    12:00 +3°C° 0.2 mm 3 mps 647 mmHg 74%
    13:00 +3°C° 0.2 mm 3 mps 647 mmHg 70%
    14:00 +2°C° 0.1 mm 3 mps 647 mmHg 73%
    15:00 +3°C° 0.1 mm 2 mps 647 mmHg 77%
    16:00 +2°C° 0.1 mm 2 mps 647 mmHg 80%
    17:00 +1°C° 0.1 mm 2 mps 648 mmHg 83%
    18:00 +1°C° 0.1 mm 2 mps 648 mmHg 85%
    19:00 +1°C° 0.1 mm 1 mps 648 mmHg 88%
    20:00 -1°C° 0.1 mm 2 mps 648 mmHg 88%
    21:00 -2°C° 0.1 mm 2 mps 649 mmHg 89%
    22:00 -2°C° 0.1 mm 2 mps 649 mmHg 90%
    23:00 -2°C° 0.1 mm 2 mps 649 mmHg 90%

    Day after tomorrow, 18 December, Monday

    Time Temperature Precipitation Wind Pressure Humidity
    00:00 -2°C° 0.1 mm 2 mps 649 mmHg 90%
    01:00 -2°C° 0.1 mm 2 mps 649 mmHg 90%
    02:00 -3°C° 0.1 mm 2 mps 649 mmHg 90%
    03:00 -3°C° 0.1 mm 2 mps 649 mmHg 90%
    04:00 -3°C° 0.1 mm 2 mps 649 mmHg 89%
    05:00 -3°C° 0.1 mm 2 mps 649 mmHg 89%
    06:00 -3°C° 0.1 mm 2 mps 649 mmHg 89%
    07:00 -3°C° 0.1 mm 2 mps 649 mmHg 88%
    08:00 -2°C° 0.1 mm 2 mps 650 mmHg 83%
    09:00 -1°C° 0.1 mm 2 mps 650 mmHg 77%
    10:00 -1°C° 0.1 mm 3 mps 650 mmHg 72%
    11:00 0°C° 0.2 mm 3 mps 650 mmHg 71%
    12:00 0°C° 0.2 mm 3 mps 650 mmHg 70%
    13:00 0°C° 0.2 mm 3 mps 650 mmHg 69%
    14:00 -1°C° 0.4 mm 3 mps 650 mmHg 73%
    15:00 -3°C° 0.4 mm 4 mps 649 mmHg 78%
    16:00 -4°C° 0.4 mm 4 mps 649 mmHg 83%
    17:00 -4°C° 0.1 mm 4 mps 650 mmHg 85%
    18:00 -4°C° 0.1 mm 4 mps 650 mmHg 87%
    19:00 -5°C° 0.1 mm 3 mps 650 mmHg 89%
    20:00 -5°C° 0 mm 3 mps 650 mmHg 89%
    21:00 -6°C° 0 mm 3 mps 651 mmHg 89%
    22:00 -6°C° 0 mm 3 mps 651 mmHg 89%
    23:00 -7°C° 0 mm 3 mps 651 mmHg 88%

    19 December, Tuesday

    Time Temperature Precipitation Wind Pressure Humidity
    00:00 -7°C° 0 mm 3 mps 651 mmHg 87%
    01:00 -6°C° 0 mm 2 mps 651 mmHg 86%
    02:00 -6°C° 0 mm 2 mps 651 mmHg 84%
    03:00 -7°C° 0 mm 2 mps 652 mmHg 82%
    04:00 -7°C° 0 mm 2 mps 652 mmHg 80%
    05:00 -7°C° 0 mm 2 mps 652 mmHg 79%
    06:00 -7°C° 0 mm 2 mps 653 mmHg 77%
    07:00 -7°C° 0 mm 2 mps 653 mmHg 76%
    08:00 -6°C° 0 mm 2 mps 654 mmHg 69%
    09:00 -4°C° 0 mm 2 mps 654 mmHg 62%
    10:00 -3°C° 0 mm 2 mps 655 mmHg 55%
    11:00 -3°C° 0 mm 2 mps 655 mmHg 54%
    12:00 -2°C° 0 mm 3 mps 655 mmHg 52%
    13:00 -2°C° 0 mm 3 mps 655 mmHg 51%
    14:00 -4°C° 0 mm 3 mps 655 mmHg 56%
    15:00 -4°C° 0 mm 3 mps 655 mmHg 61%
    16:00 -5°C° 0 mm 3 mps 654 mmHg 67%
    17:00 -6°C° 0 mm 3 mps 655 mmHg 69%
    18:00 -6°C° 0 mm 3 mps 655 mmHg 71%
    19:00 -7°C° 0 mm 3 mps 655 mmHg 73%
    20:00 -7°C° 0 mm 3 mps 655 mmHg 73%
    21:00 -7°C° 0 mm 3 mps 655 mmHg 72%
    22:00 -7°C° 0 mm 3 mps 655 mmHg 72%
    23:00 -6°C° 0 mm 2 mps 655 mmHg 71%

    20 December, Wednesday

    Time Temperature Precipitation Wind Pressure Humidity
    00:00 -7°C° 0 mm 2 mps 655 mmHg 71%
    01:00 -7°C° 0 mm 2 mps 654 mmHg 70%
    02:00 -7°C° 0 mm 2 mps 654 mmHg 69%
    03:00 -7°C° 0 mm 2 mps 654 mmHg 68%
    04:00 -7°C° 0 mm 2 mps 654 mmHg 66%
    05:00 -7°C° 0 mm 2 mps 654 mmHg 65%
    06:00 -7°C° 0 mm 2 mps 654 mmHg 64%
    07:00 -7°C° 0 mm 2 mps 654 mmHg 63%
    08:00 -6°C° 0 mm 2 mps 655 mmHg 57%
    09:00 -5°C° 0 mm 2 mps 655 mmHg 51%
    10:00 -4°C° 0 mm 2 mps 655 mmHg 45%
    11:00 -3°C° 0 mm 2 mps 655 mmHg 43%
    12:00 -3°C° 0 mm 2 mps 655 mmHg 41%
    13:00 -2°C° 0 mm 2 mps 655 mmHg 40%
    14:00 -3°C° 0 mm 2 mps 655 mmHg 45%
    15:00 -5°C° 0 mm 3 mps 655 mmHg 50%
    16:00 -6°C° 0 mm 3 mps 655 mmHg 56%
    17:00 -5°C° 0 mm 2 mps 655 mmHg 58%
    18:00 -6°C° 0 mm 2 mps 655 mmHg 61%
    19:00 -7°C° 0 mm 2 mps 655 mmHg 63%
    20:00 -7°C° 0 mm 2 mps 655 mmHg 64%
    21:00 -7°C° 0 mm 2 mps 655 mmHg 65%
    22:00 -7°C° 0 mm 2 mps 655 mmHg 66%
    23:00 -7°C° 0 mm 2 mps 655 mmHg 67%

    21 December, Thursday

    Time Temperature Precipitation Wind Pressure Humidity
    00:00 -7°C° 0 mm 2 mps 655 mmHg 67%
    01:00 -7°C° 0 mm 2 mps 655 mmHg 68%
    02:00 -7°C° 0 mm 2 mps 655 mmHg 68%
    03:00 -7°C° 0 mm 2 mps 655 mmHg 68%
    04:00 -7°C° 0 mm 2 mps 654 mmHg 68%
    05:00 -7°C° 0 mm 2 mps 655 mmHg 67%
    06:00 -7°C° 0 mm 2 mps 655 mmHg 66%
    07:00 -7°C° 0 mm 2 mps 655 mmHg 65%
    08:00 -6°C° 0 mm 2 mps 656 mmHg 58%
    09:00 -6°C° 0 mm 3 mps 656 mmHg 51%
    10:00 -4°C° 0 mm 3 mps 657 mmHg 44%
    11:00 -4°C° 0 mm 3 mps 657 mmHg 43%
    12:00 -2°C° 0 mm 3 mps 656 mmHg 42%
    13:00 -2°C° 0 mm 3 mps 656 mmHg 41%
    14:00 -4°C° 0 mm 3 mps 656 mmHg 46%
    15:00 -5°C° 0 mm 3 mps 656 mmHg 52%
    16:00 -6°C° 0 mm 3 mps 656 mmHg 57%
    17:00 -6°C° 0 mm 3 mps 656 mmHg 60%
    18:00 -7°C° 0 mm 3 mps 656 mmHg 62%
    19:00 -7°C° 0 mm 3 mps 656 mmHg 65%
    20:00 -7°C° 0 mm 3 mps 657 mmHg 66%
    21:00 -8°C° 0 mm 3 mps 657 mmHg 66%
    22:00 -7°C° 0 mm 2 mps 657 mmHg 66%
    23:00 -6°C° 0 mm 2 mps 657 mmHg 65%
    Show more